Location: Sungai Laei
(2.6000°N, 113.7167°E)
Time: 10:16:23
(UTC+00:00)

ARIANE 5 DEB (SYLDA) - Pass Details

Date: 22 May 2022
Orbit: 363 x 18326 km, 2.5° (Epoch: 06 July)

Event Time Altitude Azimuth Distance (km) Brightness Sun altitude
Exits shadow 20:22:15 57° 246° (WSW) 1,348 4.3 -26.8°
Maximum altitude 20:23:41 76° 179° (S) 1,428 4.7 -26.5°
Drops below altitude 10° 20:48:07 10° 95° (E) 9,905 10.0 -20.9°
Sets 21:09:32 0° 94° (E) 15,324 11.3 -15.9°
